Вернуться в каталог

STARLINK-30172

АктивенСвязьVLEO
NORAD 57410·PAYLOAD·🇺🇸 United States

Запущен Jul 20, 2023 с Vandenberg Space Force Base

Loading…

Ближайшие Пролёты (ближайшие 24 часа)

TLE

СвежийSource: CelesTrak SupGP

Эпоха: Sep 15, 2026, 02:42 UTC

1 57410C 23102G   26258.11298611  .00234770  00000+0  50550-2 0  2584
2 57410  42.9998 256.8263 0001871 273.7215  47.8134 15.43640764    14

Отслеживайте STARLINK-30172 в реальном времени с AllMySat

Download on the App Store